NOAA 16 DEB

Satellite information

Favourite Embed

Satellite Type and Status

DEBRISIN ORBIT

Key statistics

Satellite NOAA 16 DEB at a glance.

Uptime

9215

Days in orbit

Revolutions

≈ 14.3

Per day

Orbit

SSO

Sun Synchronous Orbit

Inclination

98.7

Latest

Satellite identification and parameters

Extended collection of information and parameters for NOAA 16 DEB.

Object identification

Identified? True

Debris? True

Object name: NOAA 16 DEB

International designator: 2000-055RT

Object number (NORAD): 42375

Object ID (CCSDS): 42375

Country: UNITED STATES OF AMERICA (US)

Current information (Y/N): Y

RCS size: SMALL

Orbital parameters

Period: 100.861 minutes

Inclination: 98.6773 deg

SMA: 7177.53 km

Apoapsis: 802.284 km

Periapsis: 796.506 km

RAAN: 55.8723 deg

Eccentricy: 0.00040252

Argument of periapsis: 320.8104 deg

Mean anomaly: 39.2785 deg

Mean motion: 14.27710856 rev/day

Mean motion (dot): 0.00006221 rev/day2

B* drag term: 0.0025378241 1/REarth

Two-line elements (TLE)

Creation date: Dec. 12, 2025, 10:14 a.m.

Reference frame: TEME

Reference center: EARTH

Epoch: Dec. 12, 2025, 3:46 a.m. UTC

TLE line 0: 0 NOAA 16 DEB

TLE line 1: 1 42375U 00055RT 25346.15730778 .00006221 00000-0 25378-2 0 9997

TLE line 2: 2 42375 98.6773 55.8723 0004025 320.8104 39.2785 14.27710856499560

Live tracking on map

Real-time ground track for satellite NOAA 16 DEB.

In-orbit conjunctions

A list of the most updated potential collisions computed for object NOAA 16 DEB.

Target Orbit TCA Probability of collision Miss distance Type
ATLAS 5 CENTAUR R/B LEO 2025-10-29 11:07:50 0.0001147282 303.0 (m) ROCKET BODY
CZ-4C R/B SSO 2025-07-25 04:57:11 0.0002525744 412.0 (m) ROCKET BODY
CZ-6A DEB LEO 2025-03-15 16:40:38 0.0001056418 40.0 (m) DEBRIS

Associated space launch

The NOAA K, L and M POES satellites begin the fifth generation of improved environmental monitoring in support of NOAA missions. The instrument payload has significant improvements and additions/deletions. The instrument changes have effected the spacecraft subsystems and data formats.

NOAA 16 DEB was lifted into orbit during the mission ‘Titan II SLV | NOAA 16’, on board a Titan II SLV space rocket.

The launch took place on Sept. 21, 2000, 10:22 a.m. from Space Launch Complex 4W.

For more information about the launch, click the button.

Launch to space Titan II SLV | NOAA 16
Titan II SLV | NOAA 16

Agency: N/A

Status: Launch Successful

Launch date: Sept. 21, 2000, 10:22 a.m. UTC

Rocket: Titan II SLV

Launch pad: Space Launch Complex 4W

Location: Vandenberg SFB, CA, USA

...

Latest news about this satellite

There are no fresh news available about this satellite. Check back as we update our databases every day.


Newsletter sign-up

Weekly statistics, charts and insights to help you stay on top of the space industry.